AEN91A LEBB-EDDH

Flight info

Callsign AEN91A
Flight time 2h 4m
Altitude 36000
Route SSN L176 LUSEM DCT LULUT DCT ADABI DCT BOKNO DCT DIBES DCT VIQAQ DCT TSU UN858 OQQAL DCT RANUX DCT VALEK DCT LUTAX UM163 DIK N853 ARCKY DCT IBESA DCT OSNAD DCT BASUM Y850 PIXUR Y850 MUBZI M105 RIBSO RIBSO7A
Aircraft A320/M-SDE3FGHIRWY/LB1

Departure

Time 2026-04-21 10:14
Airport Bilbao Airport (LEBB)

Arrival

Time 2026-04-21 12:18
Airport Hamburg Helmut Schmidt Airport (EDDH)
Time Latitude Longitude Altitude Speed Heading
2026-04-21 09:31 43.30455 -2.90684 133 ft 0 kts 27°
2026-04-21 09:32 43.30442 -2.90687 133 ft 0 kts 26°
2026-04-21 10:05 43.30433 -2.90693 132 ft 4 kts 24°
2026-04-21 10:05 43.30408 -2.90706 132 ft 4 kts
2026-04-21 10:05 43.30382 -2.90706 132 ft 4 kts 330°
2026-04-21 10:06 43.30371 -2.90692 132 ft 1 kts 296°
2026-04-21 10:06 43.30370 -2.90689 132 ft 0 kts 296°
2026-04-21 10:08 43.30371 -2.90691 132 ft 2 kts 296°
2026-04-21 10:08 43.30395 -2.90756 132 ft 13 kts 296°
2026-04-21 10:08 43.30414 -2.90874 132 ft 12 kts 271°
2026-04-21 10:09 43.30399 -2.90973 132 ft 10 kts 221°
2026-04-21 10:09 43.30342 -2.91014 132 ft 9 kts 207°
2026-04-21 10:09 43.30309 -2.91067 125 ft 8 kts 261°
2026-04-21 10:09 43.30334 -2.91162 132 ft 11 kts 296°
2026-04-21 10:10 43.30366 -2.91249 132 ft 9 kts 296°
2026-04-21 10:10 43.30398 -2.91338 132 ft 15 kts 296°
2026-04-21 10:10 43.30443 -2.91461 132 ft 16 kts 296°
2026-04-21 10:10 43.30495 -2.91602 132 ft 16 kts 296°
2026-04-21 10:11 43.30545 -2.91738 132 ft 21 kts 297°
2026-04-21 10:11 43.30622 -2.91947 132 ft 25 kts 296°
2026-04-21 10:11 43.30702 -2.92166 132 ft 26 kts 297°
2026-04-21 10:11 43.30770 -2.92353 132 ft 9 kts 296°
2026-04-21 10:12 43.30798 -2.92430 132 ft 8 kts 293°
2026-04-21 10:12 43.30782 -2.92505 132 ft 9 kts 213°
2026-04-21 10:12 43.30714 -2.92491 133 ft 14 kts 161°
2026-04-21 10:12 43.30627 -2.92442 133 ft 14 kts 147°
2026-04-21 10:13 43.30594 -2.92382 133 ft 0 kts 116°
2026-04-21 10:13 43.30567 -2.92307 132 ft 38 kts 116°
2026-04-21 10:13 43.30334 -2.91672 133 ft 107 kts 117°
2026-04-21 10:13 43.29919 -2.90522 166 ft 156 kts 115°
2026-04-21 10:14 43.29496 -2.89207 879 ft 150 kts 113°
2026-04-21 10:14 43.29041 -2.87893 1497 ft 158 kts 117°
2026-04-21 10:14 43.28504 -2.86476 1943 ft 176 kts 120°
2026-04-21 10:14 43.27900 -2.84928 2530 ft 191 kts 119°
2026-04-21 10:15 43.27254 -2.83223 2927 ft 211 kts 120°
2026-04-21 10:15 43.26576 -2.81426 3518 ft 216 kts 120°
2026-04-21 10:15 43.25869 -2.79571 4085 ft 224 kts 120°
2026-04-21 10:15 43.25137 -2.77667 4883 ft 227 kts 120°
2026-04-21 10:16 43.24531 -2.75659 5577 ft 233 kts 99°
2026-04-21 10:16 43.24724 -2.73433 6276 ft 241 kts 68°
2026-04-21 10:16 43.25696 -2.71559 7002 ft 245 kts 41°
2026-04-21 10:16 43.26993 -2.70037 7743 ft 246 kts 41°
2026-04-21 10:17 43.28267 -2.68445 8443 ft 249 kts 43°
2026-04-21 10:17 43.29449 -2.66699 9176 ft 252 kts 57°
2026-04-21 10:17 43.30241 -2.64500 9604 ft 268 kts 74°
2026-04-21 10:17 43.30481 -2.61928 9922 ft 285 kts 94°
2026-04-21 10:18 43.30416 -2.59117 10277 ft 306 kts 91°
2026-04-21 10:18 43.30442 -2.56044 10515 ft 330 kts 89°
2026-04-21 10:18 43.30512 -2.52830 10689 ft 353 kts 89°
2026-04-21 10:18 43.30597 -2.49366 10857 ft 374 kts 89°
2026-04-21 10:19 43.30680 -2.45754 11375 ft 382 kts 89°
2026-04-21 10:19 43.30756 -2.42090 12047 ft 386 kts 89°
2026-04-21 10:19 43.30823 -2.38386 12743 ft 390 kts 89°
2026-04-21 10:19 43.30882 -2.34647 13413 ft 393 kts 89°
2026-04-21 10:20 43.30935 -2.30876 14006 ft 397 kts 89°
2026-04-21 10:20 43.30985 -2.27072 14565 ft 400 kts 89°
2026-04-21 10:20 43.31021 -2.23233 15108 ft 404 kts 90°
2026-04-21 10:20 43.31041 -2.19366 15636 ft 407 kts 90°
2026-04-21 10:21 43.31049 -2.15460 16159 ft 411 kts 90°
2026-04-21 10:21 43.31054 -2.11509 16672 ft 414 kts 90°
2026-04-21 10:21 43.31060 -2.07545 17180 ft 418 kts 90°
2026-04-21 10:21 43.31072 -2.03537 17692 ft 422 kts 89°
2026-04-21 10:22 43.31084 -1.99496 18198 ft 425 kts 89°
2026-04-21 10:22 43.31099 -1.95421 18650 ft 428 kts 89°
2026-04-21 10:22 43.31369 -1.91343 19083 ft 431 kts 78°
2026-04-21 10:22 43.32204 -1.87390 19516 ft 432 kts 67°
2026-04-21 10:23 43.33588 -1.83723 19953 ft 434 kts 55°
2026-04-21 10:23 43.35467 -1.80481 20376 ft 435 kts 44°
2026-04-21 10:23 43.37769 -1.77798 20793 ft 435 kts 33°
2026-04-21 10:23 43.40289 -1.75483 21217 ft 437 kts 31°
2026-04-21 10:24 43.42836 -1.73183 21627 ft 439 kts 31°
2026-04-21 10:24 43.45403 -1.70883 22029 ft 442 kts 31°
2026-04-21 10:24 43.47985 -1.68568 22453 ft 444 kts 31°
2026-04-21 10:24 43.50571 -1.66240 22832 ft 446 kts 31°
2026-04-21 10:25 43.53178 -1.63888 23203 ft 449 kts 31°
2026-04-21 10:25 43.55798 -1.61515 23561 ft 451 kts 31°
2026-04-21 10:25 43.58428 -1.59129 23875 ft 454 kts 31°
2026-04-21 10:25 43.61072 -1.56731 24183 ft 456 kts 31°
2026-04-21 10:26 43.63731 -1.54320 24501 ft 458 kts 31°
2026-04-21 10:26 43.66398 -1.51897 24803 ft 460 kts 31°
2026-04-21 10:26 43.69076 -1.49457 25102 ft 462 kts 31°
2026-04-21 10:26 43.71763 -1.47000 25392 ft 464 kts 31°
2026-04-21 10:27 43.74454 -1.44534 25670 ft 466 kts 31°
2026-04-21 10:27 43.77169 -1.42048 25946 ft 468 kts 31°
2026-04-21 10:27 43.79885 -1.39562 26230 ft 470 kts 31°
2026-04-21 10:27 43.82619 -1.37062 26514 ft 472 kts 31°
2026-04-21 10:28 43.85333 -1.34577 26786 ft 474 kts 31°
2026-04-21 10:28 43.88118 -1.32019 27064 ft 476 kts 31°
2026-04-21 10:28 43.90879 -1.29481 27372 ft 476 kts 31°
2026-04-21 10:28 43.93601 -1.26975 27774 ft 475 kts 31°
2026-04-21 10:29 43.96353 -1.24439 28146 ft 474 kts 31°
2026-04-21 10:29 43.99101 -1.21902 28528 ft 474 kts 31°
2026-04-21 10:29 44.01841 -1.19371 28918 ft 473 kts 31°
2026-04-21 10:29 44.04584 -1.16837 29286 ft 473 kts 31°
2026-04-21 10:30 44.07320 -1.14306 29670 ft 472 kts 30°
2026-04-21 10:30 44.10053 -1.11777 30041 ft 471 kts 30°
2026-04-21 10:30 44.12775 -1.09255 30362 ft 471 kts 30°
2026-04-21 10:30 44.15505 -1.06720 30677 ft 470 kts 30°
2026-04-21 10:31 44.18218 -1.04195 30997 ft 470 kts 30°
2026-04-21 10:31 44.20933 -1.01667 31320 ft 469 kts 30°
2026-04-21 10:31 44.23652 -0.99135 31639 ft 468 kts 30°
2026-04-21 10:31 44.26354 -0.96612 31958 ft 468 kts 30°
2026-04-21 10:32 44.29063 -0.94084 32274 ft 467 kts 30°
2026-04-21 10:32 44.31764 -0.91563 32585 ft 467 kts 30°
2026-04-21 10:32 44.34458 -0.89044 32896 ft 466 kts 30°
2026-04-21 10:32 44.37153 -0.86523 33198 ft 466 kts 30°
2026-04-21 10:33 44.39886 -0.84105 33502 ft 463 kts 25°
2026-04-21 10:33 44.42779 -0.82183 33801 ft 460 kts 19°
2026-04-21 10:33 44.45712 -0.80402 34088 ft 459 kts 19°
2026-04-21 10:33 44.48645 -0.78624 34348 ft 459 kts 19°
2026-04-21 10:34 44.51574 -0.76847 34616 ft 459 kts 19°
2026-04-21 10:34 44.54500 -0.75065 34873 ft 458 kts 19°
2026-04-21 10:34 44.57426 -0.73279 35121 ft 458 kts 19°
2026-04-21 10:34 44.60339 -0.71496 35362 ft 458 kts 19°
2026-04-21 10:35 44.63263 -0.69700 35587 ft 458 kts 19°
2026-04-21 10:35 44.66173 -0.67911 35814 ft 457 kts 19°
2026-04-21 10:35 44.69091 -0.66115 35912 ft 459 kts 19°
2026-04-21 10:36 44.74960 -0.62506 35920 ft 461 kts 19°
2026-04-21 10:36 44.80834 -0.58885 35921 ft 461 kts 19°
2026-04-21 10:37 44.86705 -0.55249 35925 ft 461 kts 19°
2026-04-21 10:37 44.92574 -0.51606 35922 ft 461 kts 19°
2026-04-21 10:38 44.98444 -0.47979 35929 ft 460 kts 19°
2026-04-21 10:38 45.04272 -0.44361 35934 ft 461 kts 19°
2026-04-21 10:39 45.10176 -0.40669 35944 ft 461 kts 19°
2026-04-21 10:39 45.15995 -0.37028 35949 ft 461 kts 19°
2026-04-21 10:40 45.21856 -0.33357 35948 ft 460 kts 19°
2026-04-21 10:40 45.27715 -0.29682 35951 ft 460 kts 19°
2026-04-21 10:41 45.33577 -0.26001 35951 ft 460 kts 19°
2026-04-21 10:41 45.39421 -0.22312 35956 ft 460 kts 19°
2026-04-21 10:42 45.45270 -0.18616 35965 ft 460 kts 19°
2026-04-21 10:42 45.51118 -0.14905 35972 ft 460 kts 19°
2026-04-21 10:43 45.56965 -0.11189 35980 ft 460 kts 19°
2026-04-21 10:43 45.62816 -0.07469 35981 ft 460 kts 19°
2026-04-21 10:44 45.67681 -0.04372 35984 ft 460 kts 19°
2026-04-21 10:44 45.73535 -0.00633 35990 ft 460 kts 19°
2026-04-21 10:45 45.79382 0.03114 35988 ft 460 kts 19°
2026-04-21 10:45 45.85225 0.06872 35988 ft 460 kts 19°
2026-04-21 10:46 45.91060 0.10621 35989 ft 460 kts 19°
2026-04-21 10:46 45.96902 0.14385 35990 ft 460 kts 19°
2026-04-21 10:47 46.02735 0.18165 35995 ft 460 kts 19°
2026-04-21 10:47 46.08571 0.21942 36009 ft 460 kts 19°
2026-04-21 10:48 46.14408 0.25725 36009 ft 460 kts 19°
2026-04-21 10:48 46.20243 0.29519 36016 ft 460 kts 19°
2026-04-21 10:49 46.26075 0.33332 36029 ft 460 kts 19°
2026-04-21 10:49 46.31906 0.37161 36042 ft 460 kts 19°
2026-04-21 10:50 46.37737 0.40986 36057 ft 460 kts 19°
2026-04-21 10:50 46.43571 0.44812 36063 ft 460 kts 19°
2026-04-21 10:51 46.49412 0.48651 36065 ft 460 kts 19°
2026-04-21 10:51 46.55214 0.52431 36072 ft 458 kts 15°
2026-04-21 10:52 46.61291 0.54758 36068 ft 450 kts
2026-04-21 10:52 46.67410 0.56766 36065 ft 451 kts
2026-04-21 10:53 46.73519 0.58796 36058 ft 451 kts
2026-04-21 10:53 46.79637 0.60833 36064 ft 451 kts
2026-04-21 10:54 46.85756 0.62868 36072 ft 451 kts
2026-04-21 10:54 46.91885 0.64892 36073 ft 451 kts
2026-04-21 10:55 46.98005 0.66922 36076 ft 451 kts
2026-04-21 10:55 47.04094 0.69231 36079 ft 457 kts 15°
2026-04-21 10:56 47.09771 0.73670 36089 ft 466 kts 25°
2026-04-21 10:56 47.15313 0.78611 36100 ft 466 kts 25°
2026-04-21 10:57 47.20823 0.83515 36108 ft 466 kts 25°
2026-04-21 10:57 47.26402 0.88511 36120 ft 466 kts 25°
2026-04-21 10:58 47.31897 0.93452 36121 ft 466 kts 25°
2026-04-21 10:58 47.37435 0.98441 36125 ft 466 kts 25°
2026-04-21 10:59 47.42974 1.03439 36122 ft 467 kts 25°
2026-04-21 10:59 47.48516 1.08435 36120 ft 467 kts 26°
2026-04-21 11:00 47.54099 1.13312 36113 ft 465 kts 23°
2026-04-21 11:00 47.59818 1.17737 36115 ft 463 kts 21°
2026-04-21 11:01 47.65571 1.22045 36122 ft 464 kts 21°
2026-04-21 11:01 47.71301 1.26483 36125 ft 464 kts 22°
2026-04-21 11:02 47.79847 1.33260 36136 ft 464 kts 22°
2026-04-21 11:02 47.85548 1.37786 36150 ft 464 kts 22°
2026-04-21 11:03 47.91254 1.42298 36150 ft 464 kts 22°
2026-04-21 11:03 47.96920 1.46775 36155 ft 464 kts 22°
2026-04-21 11:04 48.02616 1.51310 36146 ft 464 kts 22°
2026-04-21 11:04 48.08310 1.55848 36156 ft 464 kts 22°
2026-04-21 11:05 48.13999 1.60401 36160 ft 464 kts 22°
2026-04-21 11:05 48.19676 1.64964 36162 ft 463 kts 22°
2026-04-21 11:06 48.25363 1.69535 36163 ft 463 kts 22°
2026-04-21 11:06 48.31041 1.74104 36170 ft 463 kts 22°
2026-04-21 11:07 48.36717 1.78684 36175 ft 463 kts 22°
2026-04-21 11:07 48.42381 1.83272 36176 ft 463 kts 23°
2026-04-21 11:08 48.48053 1.87881 36186 ft 462 kts 23°
2026-04-21 11:08 48.53707 1.92488 36196 ft 462 kts 23°
2026-04-21 11:09 48.59365 1.97108 36207 ft 462 kts 23°
2026-04-21 11:09 48.65014 2.01730 36219 ft 462 kts 23°
2026-04-21 11:10 48.70575 2.06609 36221 ft 467 kts 32°
2026-04-21 11:10 48.73016 2.09897 36215 ft 473 kts 43°
2026-04-21 11:10 48.75065 2.13830 36205 ft 479 kts 53°
2026-04-21 11:11 48.76644 2.18298 36214 ft 484 kts 64°
2026-04-21 11:11 48.77696 2.23095 36196 ft 487 kts 72°
2026-04-21 11:11 48.79481 2.33004 36189 ft 488 kts 72°
2026-04-21 11:12 48.81267 2.42937 36190 ft 488 kts 72°
2026-04-21 11:12 48.83038 2.52881 36195 ft 488 kts 72°
2026-04-21 11:13 48.84801 2.62837 36198 ft 488 kts 72°
2026-04-21 11:13 48.86546 2.72803 36197 ft 488 kts 72°
2026-04-21 11:14 48.88285 2.82759 36194 ft 488 kts 72°
2026-04-21 11:14 48.90026 2.92740 36195 ft 489 kts 72°
2026-04-21 11:15 48.91758 3.02731 36199 ft 489 kts 72°
2026-04-21 11:15 48.93478 3.12725 36201 ft 489 kts 72°
2026-04-21 11:16 48.95185 3.22739 36201 ft 489 kts 72°
2026-04-21 11:16 48.96885 3.32775 36203 ft 489 kts 72°
2026-04-21 11:17 48.98575 3.42809 36203 ft 489 kts 72°
2026-04-21 11:17 49.00258 3.52839 36198 ft 489 kts 72°
2026-04-21 11:18 49.01941 3.62889 36203 ft 490 kts 72°
2026-04-21 11:18 49.03615 3.72954 36198 ft 490 kts 72°
2026-04-21 11:19 49.05277 3.83031 36199 ft 490 kts 72°
2026-04-21 11:19 49.06929 3.93118 36200 ft 490 kts 72°
2026-04-21 11:20 49.08570 4.03217 36205 ft 490 kts 72°
2026-04-21 11:20 49.10203 4.13251 36205 ft 491 kts 72°
2026-04-21 11:21 49.11839 4.23360 36207 ft 491 kts 72°
2026-04-21 11:21 49.13456 4.33473 36206 ft 491 kts 72°
2026-04-21 11:22 49.14488 4.38482 35882 ft 485 kts 64°
2026-04-21 11:22 49.15755 4.43172 35404 ft 483 kts 62°
2026-04-21 11:22 49.17049 4.47890 35190 ft 480 kts 61°
2026-04-21 11:22 49.18335 4.52578 35190 ft 478 kts 62°
2026-04-21 11:23 49.20886 4.61949 35196 ft 477 kts 62°
2026-04-21 11:23 49.23405 4.71340 35195 ft 477 kts 62°
2026-04-21 11:24 49.25917 4.80734 35199 ft 477 kts 62°
2026-04-21 11:24 49.28426 4.90127 35203 ft 477 kts 63°
2026-04-21 11:25 49.30928 4.99530 35214 ft 476 kts 63°
2026-04-21 11:25 49.33421 5.08936 35210 ft 476 kts 63°
2026-04-21 11:26 49.35901 5.18344 35214 ft 476 kts 63°
2026-04-21 11:26 49.38371 5.27786 35224 ft 477 kts 63°
2026-04-21 11:27 49.40835 5.37227 35225 ft 476 kts 63°
2026-04-21 11:27 49.43302 5.46663 35229 ft 476 kts 63°
2026-04-21 11:28 49.45758 5.56097 35228 ft 476 kts 64°
2026-04-21 11:28 49.48196 5.65559 35230 ft 476 kts 64°
2026-04-21 11:29 49.51081 5.74594 35227 ft 466 kts 50°
2026-04-21 11:29 49.55415 5.81791 35424 ft 454 kts 33°
2026-04-21 11:30 49.57971 5.84589 35707 ft 449 kts 28°
2026-04-21 11:30 49.60595 5.87190 35964 ft 448 kts 28°
2026-04-21 11:30 49.63207 5.89806 36188 ft 449 kts 29°
2026-04-21 11:30 49.65819 5.92441 36403 ft 449 kts 29°
2026-04-21 11:31 49.68430 5.95082 36616 ft 449 kts 29°
2026-04-21 11:31 49.71041 5.97723 36832 ft 449 kts 29°
2026-04-21 11:31 49.73656 6.00366 37021 ft 449 kts 29°
2026-04-21 11:31 49.76270 6.03005 37251 ft 449 kts 29°
2026-04-21 11:32 49.78885 6.05644 37444 ft 449 kts 30°
2026-04-21 11:32 49.80614 6.07387 37569 ft 449 kts 30°
2026-04-21 11:32 49.83311 6.09781 37746 ft 445 kts 21°
2026-04-21 11:32 49.86175 6.11565 37949 ft 442 kts 14°
2026-04-21 11:33 49.89146 6.12695 38131 ft 438 kts
2026-04-21 11:33 49.92178 6.13065 38217 ft 437 kts 358°
2026-04-21 11:33 49.98262 6.13104 38221 ft 437 kts 358°
2026-04-21 11:34 50.04351 6.13085 38222 ft 438 kts 358°
2026-04-21 11:34 50.10445 6.13102 38223 ft 438 kts 358°
2026-04-21 11:35 50.16545 6.13148 38227 ft 438 kts 358°
2026-04-21 11:35 50.22641 6.13188 38234 ft 439 kts 358°
2026-04-21 11:36 50.28726 6.13936 38236 ft 442 kts 12°
2026-04-21 11:36 50.34377 6.17774 38237 ft 448 kts 31°
2026-04-21 11:37 50.39589 6.23147 38236 ft 449 kts 31°
2026-04-21 11:37 50.44817 6.28523 38240 ft 449 kts 31°
2026-04-21 11:38 50.50039 6.33909 38245 ft 450 kts 31°
2026-04-21 11:38 50.55203 6.39471 38253 ft 450 kts 33°
2026-04-21 11:39 50.60280 6.45131 38270 ft 450 kts 33°
2026-04-21 11:39 50.65397 6.50821 38281 ft 450 kts 33°
2026-04-21 11:40 50.70531 6.56490 38288 ft 450 kts 32°
2026-04-21 11:40 50.75658 6.62151 38293 ft 450 kts 33°
2026-04-21 11:41 50.80786 6.67837 38297 ft 450 kts 33°
2026-04-21 11:41 50.85909 6.73541 38289 ft 450 kts 33°
2026-04-21 11:42 50.91041 6.79250 38295 ft 450 kts 33°
2026-04-21 11:42 50.96165 6.84969 38290 ft 450 kts 33°
2026-04-21 11:43 51.01273 6.90711 38295 ft 450 kts 33°
2026-04-21 11:43 51.06380 6.96473 38285 ft 450 kts 33°
2026-04-21 11:44 51.11492 7.02236 38297 ft 450 kts 33°
2026-04-21 11:44 51.16597 7.08006 38296 ft 450 kts 33°
2026-04-21 11:45 51.21686 7.13786 38312 ft 450 kts 34°
2026-04-21 11:45 51.26782 7.19588 38302 ft 449 kts 34°
2026-04-21 11:46 51.31869 7.25376 38313 ft 449 kts 34°
2026-04-21 11:46 51.36948 7.31176 38318 ft 448 kts 34°
2026-04-21 11:47 51.42014 7.36991 38318 ft 448 kts 34°
2026-04-21 11:47 51.47071 7.42819 38325 ft 448 kts 34°
2026-04-21 11:48 51.52124 7.48640 38326 ft 447 kts 34°
2026-04-21 11:48 51.57177 7.54472 38323 ft 447 kts 34°
2026-04-21 11:49 51.62219 7.60320 38327 ft 447 kts 34°
2026-04-21 11:49 51.67252 7.66181 38326 ft 446 kts 34°
2026-04-21 11:50 51.72252 7.72009 38320 ft 446 kts 34°
2026-04-21 11:50 51.77283 7.77888 38322 ft 446 kts 35°
2026-04-21 11:51 51.82306 7.83782 38328 ft 446 kts 35°
2026-04-21 11:51 51.87327 7.89697 38330 ft 447 kts 35°
2026-04-21 11:52 51.92351 7.95620 38339 ft 447 kts 35°
2026-04-21 11:52 51.97377 8.01549 38340 ft 447 kts 35°
2026-04-21 11:53 52.02395 8.07497 38337 ft 447 kts 35°
2026-04-21 11:53 52.07405 8.13471 38337 ft 447 kts 35°
2026-04-21 11:54 52.12410 8.19450 38340 ft 446 kts 35°
2026-04-21 11:54 52.17409 8.25425 38346 ft 445 kts 35°
2026-04-21 11:55 52.22620 8.30811 38351 ft 444 kts 27°
2026-04-21 11:55 52.28070 8.35539 38360 ft 443 kts 27°
2026-04-21 11:56 52.33513 8.40282 38364 ft 443 kts 28°
2026-04-21 11:56 52.38952 8.45032 38365 ft 443 kts 28°
2026-04-21 11:57 52.44384 8.49794 38371 ft 443 kts 28°
2026-04-21 11:57 52.49807 8.54568 38364 ft 442 kts 28°
2026-04-21 11:58 52.55228 8.59351 38367 ft 442 kts 28°
2026-04-21 11:58 52.60613 8.64102 38368 ft 442 kts 28°
2026-04-21 11:59 52.66072 8.68932 38076 ft 443 kts 28°
2026-04-21 11:59 52.68739 8.71305 37430 ft 442 kts 29°
2026-04-21 11:59 52.71446 8.73722 36738 ft 442 kts 29°
2026-04-21 12:00 52.74172 8.76093 35978 ft 444 kts 25°
2026-04-21 12:00 52.77085 8.77855 35141 ft 450 kts 16°
2026-04-21 12:00 52.80197 8.78733 34323 ft 456 kts
2026-04-21 12:00 52.83366 8.78796 33554 ft 456 kts
2026-04-21 12:01 52.86546 8.78766 32594 ft 458 kts
2026-04-21 12:01 52.89742 8.78748 31667 ft 460 kts
2026-04-21 12:01 52.92931 8.78732 30462 ft 458 kts
2026-04-21 12:01 52.96118 8.78773 28814 ft 458 kts
2026-04-21 12:02 52.99266 8.79389 27643 ft 455 kts 13°
2026-04-21 12:02 53.05575 8.80857 25222 ft 462 kts 12°
2026-04-21 12:02 53.08770 8.81583 24052 ft 464 kts 12°
2026-04-21 12:03 53.11926 8.82287 23012 ft 451 kts 12°
2026-04-21 12:03 53.15002 8.82965 22079 ft 439 kts 11°
2026-04-21 12:03 53.17980 8.83624 21277 ft 425 kts 12°
2026-04-21 12:03 53.20873 8.84273 20487 ft 414 kts 12°
2026-04-21 12:04 53.23689 8.84912 19717 ft 404 kts 12°
2026-04-21 12:04 53.26444 8.85545 18974 ft 395 kts 12°
2026-04-21 12:04 53.29140 8.86169 18214 ft 389 kts 12°
2026-04-21 12:04 53.31809 8.86789 17509 ft 385 kts 12°
2026-04-21 12:05 53.34427 8.87588 16845 ft 379 kts 18°
2026-04-21 12:05 53.36904 8.89011 16197 ft 374 kts 26°
2026-04-21 12:05 53.39285 8.90716 15570 ft 372 kts 26°
2026-04-21 12:05 53.41664 8.92407 14952 ft 371 kts 26°
2026-04-21 12:06 53.44084 8.94121 14333 ft 382 kts 26°
2026-04-21 12:06 53.46540 8.95858 13677 ft 383 kts 26°
2026-04-21 12:06 53.48990 8.97590 13005 ft 381 kts 26°
2026-04-21 12:06 53.51420 8.99318 12344 ft 378 kts 26°
2026-04-21 12:07 53.53767 9.01228 11702 ft 372 kts 36°
2026-04-21 12:07 53.55622 9.04158 11058 ft 364 kts 52°
2026-04-21 12:07 53.57147 9.07478 10459 ft 362 kts 54°
2026-04-21 12:07 53.58668 9.10882 9840 ft 357 kts 56°
2026-04-21 12:08 53.59722 9.14525 9305 ft 348 kts 75°
2026-04-21 12:08 53.60076 9.18560 8766 ft 341 kts 84°
2026-04-21 12:08 53.60157 9.22447 8268 ft 335 kts 96°
2026-04-21 12:08 53.59465 9.26197 7743 ft 332 kts 113°
2026-04-21 12:09 53.58264 9.29431 7242 ft 330 kts 126°
2026-04-21 12:09 53.56842 9.32436 6826 ft 324 kts 126°
2026-04-21 12:09 53.55456 9.35348 6563 ft 313 kts 126°
2026-04-21 12:09 53.54114 9.38157 6296 ft 303 kts 126°
2026-04-21 12:10 53.52813 9.40879 6039 ft 295 kts 126°
2026-04-21 12:10 53.51549 9.43524 5776 ft 287 kts 126°
2026-04-21 12:10 53.50317 9.46092 5517 ft 278 kts 126°
2026-04-21 12:10 53.49120 9.48583 5256 ft 271 kts 126°
2026-04-21 12:11 53.47951 9.51018 5052 ft 263 kts 126°
2026-04-21 12:11 53.46827 9.53356 4991 ft 249 kts 126°
2026-04-21 12:11 53.45811 9.55595 4997 ft 232 kts 117°
2026-04-21 12:11 53.45230 9.58014 5009 ft 220 kts 100°
2026-04-21 12:12 53.45124 9.60547 5009 ft 218 kts 83°
2026-04-21 12:12 53.45480 9.62996 5013 ft 217 kts 67°
2026-04-21 12:12 53.46266 9.65152 4924 ft 218 kts 51°
2026-04-21 12:12 53.47236 9.67085 4674 ft 216 kts 51°
2026-04-21 12:13 53.48205 9.69009 4385 ft 214 kts 51°
2026-04-21 12:13 53.49148 9.70891 4102 ft 208 kts 51°
2026-04-21 12:13 53.50066 9.72728 3815 ft 203 kts 51°
2026-04-21 12:13 53.50963 9.74525 3542 ft 199 kts 51°
2026-04-21 12:14 53.51848 9.76296 3269 ft 198 kts 51°
2026-04-21 12:14 53.52725 9.78055 2988 ft 194 kts 50°
2026-04-21 12:14 53.53594 9.79800 2726 ft 196 kts 50°
2026-04-21 12:14 53.54453 9.81521 2450 ft 187 kts 50°
2026-04-21 12:15 53.55303 9.83229 2191 ft 197 kts 50°
2026-04-21 12:15 53.56180 9.84992 1920 ft 192 kts 50°
2026-04-21 12:15 53.57022 9.86686 1644 ft 185 kts 50°
2026-04-21 12:15 53.57822 9.88297 1423 ft 175 kts 50°
2026-04-21 12:16 53.58575 9.89815 1175 ft 160 kts 50°
2026-04-21 12:16 53.59251 9.91176 988 ft 143 kts 50°
2026-04-21 12:16 53.59862 9.92414 711 ft 134 kts 51°
2026-04-21 12:16 53.60444 9.93592 527 ft 129 kts 51°
2026-04-21 12:17 53.61013 9.94727 361 ft 127 kts 51°
2026-04-21 12:17 53.61580 9.95870 213 ft 125 kts 52°
2026-04-21 12:17 53.62134 9.96999 55 ft 121 kts 52°
2026-04-21 12:17 53.62611 9.97962 41 ft 93 kts 50°
2026-04-21 12:18 53.62965 9.98683 45 ft 70 kts 49°
2026-04-21 12:18 53.63222 9.99200 47 ft 34 kts 50°
2026-04-21 12:18 53.63290 9.99495 47 ft 24 kts 91°
2026-04-21 12:18 53.63277 9.99649 48 ft 7 kts 100°
2026-04-21 12:19 53.63269 9.99697 47 ft 8 kts 117°
2026-04-21 12:19 53.63208 9.99772 47 ft 11 kts 152°
2026-04-21 12:19 53.63142 9.99831 48 ft 8 kts 152°
2026-04-21 12:19 53.63127 9.99919 48 ft 10 kts 71°
2026-04-21 12:20 53.63174 10.00024 48 ft 12 kts 50°
2026-04-21 12:20 53.63211 10.00097 48 ft 10 kts 50°
2026-04-21 12:20 53.63163 10.00187 46 ft 10 kts 176°
2026-04-21 12:20 53.63121 10.00190 48 ft 8 kts 176°
2026-04-21 12:21 53.63081 10.00224 48 ft 6 kts 121°
2026-04-21 12:21 53.63076 10.00304 48 ft 8 kts 93°
2026-04-21 12:21 53.63074 10.00367 48 ft 3 kts 93°
2026-04-21 12:21 53.63073 10.00385 48 ft 1 kts 93°
2026-04-21 12:22 53.63073 10.00388 48 ft 0 kts 93°